Weather History for Cape Lisburne, AK

Change the Weather History Date:

Thursday, October 25, 2012

  Actual Average Record
Temperature  
Mean Temperature 34 °F -  
Max Temperature 35 °F 24 °F 42 °F (2002)
Min Temperature 33 °F 16 °F 3 °F (1996)
Degree Days  
Heating Degree Days 31    
Moisture  
Dew Point 30 °F    
Average Humidity 87    
Maximum Humidity 100    
Minimum Humidity 70    
Precipitation  
Precipitation 0.00 in - - ()
Sea Level Pressure  
Sea Level Pressure 30.38 in    
Wind  
Wind Speed - (North)    
Max Wind Speed -    
Max Gust Speed -    
Visibility 10 miles    
Events Rain , Snow    
Averages and records for this station are not official NWS values.
T = Trace of Precipitation, MM = Missing Value Source: NWS Daily Summary

Daily Weather History Graph

Daily Weather History Graph

Search for Another Location

Airport:

Trip Planner

Search our weather history database for the weather conditions in past years. The results will help you decide how hot, cold, wet, or windy it might be!

Date:

Astronomy

Oct. 25, 2012 Rise Set
Actual Time 10:56 AM AKDT 6:39 PM AKDT
Civil Twilight 9:51 AM AKDT 7:43 PM AKDT
Nautical Twilight 8:43 AM AKDT 8:51 PM AKDT
Astronomical Twilight 7:36 AM AKDT 9:58 PM AKDT
Moon 5:57 PM AKDT (10/25) 5:23 AM AKDT (10/25)
Length of Visible Light 9h 51m
Length of Day
7h 42m
Waxing Gibbous, 85% of the Moon is Illuminated
Oct 25
Waxing Gibbous
Oct 29
Full
Nov 6
Last Quarter
Nov 13
New
Nov 20
First Quarter

Hourly Weather History & Observations

Time (AKDT) Temp. Dew Point Humidity Pressure Visibility Wind Dir Wind Speed Gust Speed Precip Events Conditions
12:55 AM 34.2 °F 27.1 °F 75% 30.45 in 10.0 mi North - - N/A   Overcast
1:55 AM 34.9 °F 26.6 °F 72% 30.45 in 10.0 mi North - - N/A   Mostly Cloudy
2:55 AM 35.1 °F 26.1 °F 70% 30.44 in 10.0 mi North - - N/A   Mostly Cloudy
3:55 AM 34.0 °F 27.1 °F 76% 30.45 in 10.0 mi North - - N/A   Mostly Cloudy
4:55 AM 35.6 °F 26.6 °F 70% 30.43 in 10.0 mi North - - N/A   Mostly Cloudy
5:55 AM 34.2 °F 27.9 °F 78% 30.42 in 10.0 mi North - - N/A   Mostly Cloudy
6:45 AM 33.8 °F 30.2 °F 87% 30.41 in 10.0 mi North - - N/A   Light Drizzle
6:55 AM 34.2 °F 29.7 °F 84% 30.41 in 10.0 mi North - - N/A Rain Light Rain Showers
7:10 AM 33.8 °F 30.2 °F 87% 30.41 in 10.0 mi North - - N/A   Mostly Cloudy
7:55 AM 33.8 °F 30.2 °F 87% 30.40 in 10.0 mi North - - N/A   Overcast
8:35 AM 33.8 °F 30.2 °F 87% 30.39 in 10.0 mi North - - N/A   Light Drizzle
8:55 AM 34.3 °F 31.5 °F 89% 30.39 in 10.0 mi North - - N/A   Light Drizzle
9:55 AM 34.0 °F 31.6 °F 91% 30.38 in 10.0 mi North - - N/A Rain Light Rain Showers
10:55 AM 33.8 °F 32.4 °F 94% 30.36 in 10.0 mi North - - N/A Rain Light Rain Showers
11:20 AM 33.8 °F 32.0 °F 93% 30.33 in 10.0 mi North - - N/A   Overcast
11:55 AM 33.3 °F 32.4 °F 96% 30.32 in 10.0 mi North - - N/A Rain Light Rain Showers
12:55 PM 33.6 °F 33.1 °F 98% 30.32 in 10.0 mi North - - N/A Rain Light Rain Showers
1:55 PM 33.8 °F 33.3 °F 98% 30.32 in 10.0 mi North - - N/A   Light Drizzle
2:25 PM 33.8 °F 33.8 °F 100% 30.32 in 5.0 mi North - - N/A Rain , Snow Light Rain
2:50 PM 33.8 °F 33.8 °F 100% 30.33 in 10.0 mi North - - N/A Rain Light Rain
2:55 PM 34.0 °F 34.0 °F 100% 30.32 in 10.0 mi North - - N/A Rain Light Rain Showers